Location: Table Mountain
(47.2500°N, 120.5778°W)
Time: 03:36:52
(UTC-08:00)

Vanguard 1 - All Passes

Search period start: 23 January 2018 00:00
Search period end: 02 February 2018 00:00
Orbit: 649 x 3834 km, 34.2° (Epoch: 22 January)

Date Brightness Start Highest point End Pass type
(mag) Time Alt. Az. Time Alt. Az. Time Alt. Az.
23 Jan - 00:12:29 10° SW 00:19:07 36° SSE 00:30:24 10° ESE visible
23 Jan - 02:31:04 10° WSW 02:40:07 40° S 02:55:34 10° SE visible
23 Jan - 04:51:53 10° WSW 05:02:29 27° SSW 05:17:41 10° SSE visible
23 Jan - 22:16:16 10° SSW 22:20:29 19° SSE 22:26:17 10° ESE night (unlit)
24 Jan - 00:33:01 10° WSW 00:39:52 38° S 00:51:37 10° ESE visible
24 Jan - 02:51:59 10° WSW 03:01:05 36° SSW 03:16:11 10° SE visible
24 Jan - 05:13:46 10° WSW 05:23:27 21° SSW 05:36:33 10° S visible
24 Jan - 22:36:14 10° SSW 22:40:57 24° SSE 22:47:51 10° ESE night (unlit)
25 Jan - 00:53:41 10° WSW 01:00:41 38° S 01:12:43 10° ESE visible
25 Jan - 03:13:03 10° WSW 03:22:04 32° SSW 03:36:30 10° SE visible
25 Jan - 05:36:28 10° WSW 05:44:23 16° SW 05:54:18 10° S visible
25 Jan - 22:56:28 10° SW 23:01:30 27° SSE 23:09:12 10° ESE night (unlit)
26 Jan - 01:14:25 10° WSW 01:21:32 37° S 01:33:40 10° ESE visible
26 Jan - 03:34:18 10° WSW 03:43:04 27° SSW 03:56:23 10° SSE visible
26 Jan - 06:01:54 10° SW 06:05:20 11° SW 06:09:03 10° SSW visible
26 Jan - 21:02:06 10° SSE 21:03:23 11° SE 21:04:47 10° SE night (unlit)
26 Jan - 23:16:53 10° SW 23:22:09 30° SSE 23:30:25 10° ESE night (unlit)
27 Jan - 01:35:15 10° WSW 01:42:26 34° S 01:54:25 10° SE visible
27 Jan - 03:55:53 10° WSW 04:04:03 22° SSW 04:15:43 10° SSE visible
27 Jan - 21:20:54 10° S 21:23:48 15° SSE 21:27:18 10° ESE night (unlit)
27 Jan - 23:37:26 10° SW 23:42:51 31° S 23:51:31 10° ESE night (unlit)
28 Jan - 01:56:12 10° WSW 02:03:22 30° SSW 02:14:56 10° SE visible
28 Jan - 04:18:06 10° WSW 04:25:03 17° SSW 04:34:11 10° S visible
28 Jan - 21:40:44 10° SSW 21:44:18 19° SSE 21:48:54 10° ESE night (unlit)
28 Jan - 23:58:05 10° WSW 00:03:38 31° S 00:12:30 10° ESE night (unlit)
29 Jan - 02:17:20 10° WSW 02:24:19 26° SSW 02:35:05 10° SSE visible
29 Jan - 04:41:58 10° SW 04:46:02 12° SSW 04:50:42 10° SSW visible
29 Jan - 22:00:56 10° SSW 22:04:52 22° SSE 22:10:12 10° ESE night (unlit)
30 Jan - 00:18:51 10° WSW 00:24:27 30° S 00:33:19 10° SE night (unlit)
30 Jan - 02:38:44 10° WSW 02:45:16 21° SSW 02:54:44 10° SSE visible
30 Jan - 22:21:21 10° SW 22:25:31 24° SSE 22:31:19 10° ESE night (unlit)
31 Jan - 00:39:43 10° WSW 00:45:18 27° S 00:53:55 10° SE night (unlit)
31 Jan - 03:00:39 10° WSW 03:06:15 16° SSW 03:13:41 10° S visible
31 Jan - 20:25:28 10° S 20:27:14 12° SSE 20:29:08 10° SE visible
31 Jan - 22:41:55 10° SW 22:46:13 25° S 22:52:18 10° ESE night (unlit)
01 Feb - 01:00:45 10° WSW 01:06:10 23° S 01:14:14 10° SE night (unlit)
01 Feb - 03:23:59 10° SW 03:27:13 12° SSW 03:30:58 10° S visible
01 Feb - 20:45:07 10° SSW 20:47:48 15° SSE 20:50:50 10° SE visible
01 Feb - 23:02:37 10° SW 23:06:57 25° S 23:13:08 10° SE night (unlit)
